This demonstration page uses our WeatherBlox Daily Observations layout. Learn more.

Left ArrowRight Arrow

39.51506, -84.39828

Hourly Observations for May 5, 2020

Temp ( °F °C ) Dew Point ( °F °C ) Humidity (%) Winds ( mph kmh ) Pressure ( in mb ) Visibility ( mi km ) Precip ( " mm )
12:15 am 00:15 Clear 57 13.8 42 5.4 57 57 NE 12 19 29.99 1016 N/A 0 0
12:35 am 00:35 Clear 56 13.5 42 5.4 58 58 ENE 12 19 29.98 1015 N/A 0 0
12:55 am 00:55 Mostly Cloudy 56 13.1 42 5.3 59 59 ENE 17 28 29.98 1015 N/A 0 0
1:15 am 01:15 Clear 55 12.7 42 5.4 61 61 ENE 15 24 29.98 1015 N/A 0 0
1:35 am 01:35 Clear 54 12 42 5.5 65 65 ENE 14 22 29.98 1015 N/A 0 0
1:55 am 01:55 Clear 53 11.8 41 5.2 64 64 ENE 15 24 29.96 1015 N/A 0 0
2:15 am 02:15 Cloudy 53 11.5 42 5.5 67 67 ENE 13 20 29.96 1014 N/A 0 0
2:35 am 02:35 Cloudy 53 11.4 40 4.7 64 64 ENE 17 28 29.95 1014 N/A 0 0
2:55 am 02:55 Cloudy 52 11.3 40 4.3 62 62 E 14 22 29.95 1014 N/A 0 0
3:15 am 03:15 Cloudy 52 11 39 4 62 62 ENE 10 17 29.96 1014 N/A 0 0
3:35 am 03:35 Cloudy 52 11 38 3.1 59 59 ENE 13 20 29.95 1014 N/A 0 0
3:55 am 03:55 Cloudy 51 10.8 38 3.2 60 60 ENE 10 17 29.94 1014 N/A 0 0
4:15 am 04:15 Cloudy 51 10.6 38 3.4 61 61 ENE 12 19 29.95 1014 N/A 0 0
4:35 am 04:35 Cloudy 51 10.4 38 3.3 62 62 ENE 9 15 29.99 1016 N/A 0 0
4:55 am 04:55 Cloudy 50 10.2 37 2.5 59 59 E 12 19 29.97 1015 N/A 0 0
5:15 am 05:15 Cloudy 50 10 36 2.4 60 60 ENE 18 30 29.96 1015 N/A 0 0
5:35 am 05:35 Cloudy 49 9.7 36 2.2 60 60 ENE 16 26 29.97 1015 N/A 0 0
5:55 am 05:55 Cloudy 47 8.4 38 3.3 71 71 ENE 21 33 29.96 1015 N/A 0 0
6:15 am 06:15 Cloudy 47 8.1 39 3.8 75 75 ENE 8 13 29.96 1015 N/A 0 0
6:35 am 06:35 Cloudy 47 8.1 38 3.4 73 73 ENE 14 22 29.96 1015 N/A 0 0
6:55 am 06:55 Mostly Cloudy 46 7.5 39 3.7 77 77 NE 16 26 29.94 1014 N/A 0 0
7:15 am 07:15 Cloudy 45 7.3 38 3.4 77 77 ENE 14 22 29.93 1013 N/A 0 0
7:35 am 07:35 Cloudy 46 7.5 37 2.6 71 71 NE 15 24 29.94 1014 N/A 0 0
7:55 am 07:55 Cloudy 46 7.6 36 2.3 69 69 ENE 10 17 29.95 1014 N/A 0 0
9:35 am 09:35 Cloudy 47 8.4 34 1 60 60 E 13 20 29.92 1013 N/A 0 0
9:55 am 09:55 Cloudy 47 8.1 30 -1 53 53 ENE 20 31 29.92 1013 N/A 0 0
10:15 am 10:15 Cloudy 47 8.2 32 0 57 57 ENE 13 20 29.9 1013 N/A 0 0
10:35 am 10:35 Cloudy 47 8.3 31 -0.7 53 53 NE 15 24 29.9 1013 N/A 0 0
10:55 am 10:55 Cloudy 47 8.3 29 -1.4 51 51 NE 18 30 29.9 1013 N/A 0 0
11:15 am 11:15 Cloudy 47 8.5 30 -1.2 51 51 E 13 20 29.9 1013 N/A 0 0
11:35 am 11:35 Cloudy 48 9 30 -1.3 49 49 ENE 9 15 29.89 1012 N/A 0 0
11:55 am 11:55 Cloudy 48 9 30 -1.2 49 49 ENE 15 24 29.87 1012 N/A 0 0
12:15 pm 12:15 Cloudy 49 9.3 31 -0.5 51 51 ENE 12 19 29.86 1011 N/A 0 0
12:35 pm 12:35 Cloudy 48 9.1 31 -0.6 51 51 NE 12 19 29.86 1011 N/A 0 0
12:55 pm 12:55 Cloudy 49 9.6 32 -0.1 51 51 ENE 9 15 29.84 1010 N/A 0 0
1:15 pm 13:15 Cloudy 51 10.3 32 -0.1 49 49 E 12 19 29.83 1010 N/A 0 0
1:35 pm 13:35 Cloudy 51 10.7 33 0.5 50 50 ENE 12 19 29.83 1010 N/A 0 0
1:55 pm 13:55 Cloudy 51 10.8 33 0.5 49 49 ENE 8 13 29.84 1010 N/A 0 0
2:15 pm 14:15 Cloudy 53 11.5 34 1.3 50 50 NE 10 17 29.82 1010 N/A 0 0
2:35 pm 14:35 Cloudy 52 11.3 34 1.1 50 50 NE 13 20 29.83 1010 N/A 0 0
2:55 pm 14:55 Cloudy 52 11.2 33 0.5 48 48 ENE 12 19 29.82 1010 N/A 0 0
3:15 pm 15:15 Cloudy 53 11.5 34 1.1 49 49 NE 9 15 29.82 1010 N/A 0 0
3:35 pm 15:35 Cloudy 53 11.5 33 0.3 46 46 ENE 10 17 29.83 1010 N/A 0 0
3:55 pm 15:55 Cloudy 53 11.5 33 0.3 46 46 NNE 14 22 29.83 1010 N/A 0 0
4:15 pm 16:15 Cloudy 52 11.3 32 0 46 46 N 10 17 29.84 1010 N/A 0 0
4:35 pm 16:35 Cloudy 52 10.9 32 0.2 48 48 N 10 17 29.84 1010 N/A 0 0
4:55 pm 16:55 Cloudy 52 10.9 31 -0.4 46 46 NNE 7 11 29.84 1010 N/A 0 0
5:15 pm 17:15 Cloudy 52 11.1 32 0.2 47 47 NNE 7 11 29.84 1010 N/A 0 0
5:35 pm 17:35 Cloudy 51 10.7 37 2.5 57 57 N 7 11 29.85 1011 N/A 0 0
5:55 pm 17:55 Cloudy 51 10.5 36 2.2 57 57 N 10 17 29.85 1011 N/A 0 0
6:15 pm 18:15 Cloudy 50 10 35 1.9 57 57 N 12 19 29.86 1011 N/A 0 0
6:35 pm 18:35 Cloudy 50 9.9 35 1.4 56 56 N 13 20 29.87 1011 N/A 0 0
6:55 pm 18:55 Cloudy 49 9.7 35 1.6 57 57 N 8 13 29.87 1012 N/A 0 0
7:15 pm 19:15 Cloudy 49 9.6 34 1.1 56 56 N 13 20 29.87 1012 N/A 0 0
7:35 pm 19:35 Cloudy 49 9.5 33 0.7 55 55 N 6 9 29.88 1012 N/A 0 0
7:55 pm 19:55 Cloudy 49 9.4 33 0.6 55 55 N 8 13 29.89 1012 N/A 0 0
8:15 pm 20:15 Cloudy 49 9.2 34 1 57 57 N 13 20 29.89 1012 N/A 0 0
8:35 pm 20:35 Cloudy 47 8.6 34 1.3 60 60 NNE 12 19 29.9 1013 N/A 0 0
8:55 pm 20:55 Cloudy 47 8.4 35 1.4 62 62 NNE 12 19 29.91 1013 N/A 0 0
9:15 pm 21:15 Cloudy 47 8.2 35 1.5 63 63 NE 12 19 29.91 1013 N/A 0 0
9:35 pm 21:35 Cloudy 46 8 35 1.8 65 65 NNE 9 15 29.92 1013 N/A 0 0
9:55 pm 21:55 Cloudy 46 7.8 35 1.6 65 65 N 10 17 29.94 1014 N/A 0 0
10:15 pm 22:15 Cloudy 46 7.6 36 2.1 68 68 NNE 12 19 29.95 1014 N/A 0 0
10:35 pm 22:35 Cloudy 45 7.3 36 2.1 70 70 N 7 11 29.96 1014 N/A 0 0
10:55 pm 22:55 Cloudy 44 6.8 36 2.1 72 72 NNE 9 15 29.96 1014 N/A 0 0
11:15 pm 23:15 Cloudy 43 6.3 37 2.7 78 78 N 12 19 29.97 1015 N/A 0 0
11:35 pm 23:35 Cloudy 42 5.7 38 3.1 84 84 NNE 10 17 29.97 1015 N/A 0 0
11:55 pm 23:55 undefined 42 5.7 39 3.7 87 87 NNE 10 17 29.97 1015 N/A 0 0

Powered by AerisWeather